Weather History for Bettles, AK

Change the Weather History Date:

Thursday, November 8, 2012

  Actual Average Record
Temperature  
Mean Temperature -11 °F -  
Max Temperature -2 °F 8 °F 36 °F (1979)
Min Temperature -20 °F -6 °F -43 °F (1956)
Degree Days  
Heating Degree Days 76    
Moisture  
Dew Point -15 °F    
Average Humidity 76    
Maximum Humidity 83    
Minimum Humidity 61    
Precipitation  
Precipitation 0.00 in - - ()
Snow  
Snow 0.00 in - - ()
Snow Depth 1.00 in    
Sea Level Pressure  
Sea Level Pressure 30.50 in    
Wind  
Wind Speed 4 mph (NNW)    
Max Wind Speed 7 mph    
Max Gust Speed -    
Visibility 10 miles    
Events      
Averages and records for this station are not official NWS values.
T = Trace of Precipitation, MM = Missing Value Source: NWS Daily Summary

Daily Weather History Graph

Daily Weather History Graph

Search for Another Location

Airport:

Trip Planner

Search our weather history database for the weather conditions in past years. The results will help you decide how hot, cold, wet, or windy it might be!

Date:

Astronomy

Nov. 08, 2012 Rise Set
Actual Time 9:38 AM AKST 4:00 PM AKST
Civil Twilight 8:32 AM AKST 5:06 PM AKST
Nautical Twilight 7:25 AM AKST 6:12 PM AKST
Astronomical Twilight 6:23 AM AKST 7:14 PM AKST
Moon 1:15 AM AKST (11/8) 2:59 PM AKST (11/8)
Length of Visible Light 8h 34m
Length of Day
6h 21m
Waning Crescent, 31% of the Moon is Illuminated
Nov 8
Waning Crescent
Nov 13
New
Nov 20
First Quarter
Nov 28
Full
Dec 6
Last Quarter

Hourly Weather History & Observations

Time (AKST) Temp. Windchill Dew Point Humidity Pressure Visibility Wind Dir Wind Speed Gust Speed Precip Events Conditions
12:53 AM -13.0 °F -25.1 °F -18.9 °F 75% 30.61 in 10.0 mi NNW 4.6 mph - N/A   Clear
1:53 AM -13.0 °F -25.1 °F -18.0 °F 78% 30.62 in 10.0 mi NW 4.6 mph - N/A   Clear
2:53 AM -14.1 °F -28.3 °F -20.0 °F 75% 30.61 in 10.0 mi North 5.8 mph - N/A   Clear
3:53 AM -11.9 °F -21.5 °F -18.0 °F 74% 30.60 in 10.0 mi North 3.5 mph - N/A   Clear
4:53 AM -14.1 °F -26.3 °F -18.9 °F 79% 30.60 in 10.0 mi NW 4.6 mph - N/A   Clear
5:53 AM -14.1 °F -28.3 °F -18.9 °F 79% 30.59 in 10.0 mi NNW 5.8 mph - N/A   Clear
6:53 AM -13.0 °F -25.1 °F -18.9 °F 75% 30.59 in 10.0 mi North 4.6 mph - N/A   Clear
7:53 AM -11.9 °F -23.8 °F -18.0 °F 74% 30.57 in 10.0 mi NNW 4.6 mph - N/A   Clear
8:53 AM -11.9 °F -25.7 °F -18.0 °F 74% 30.56 in 10.0 mi NNW 5.8 mph - N/A   Clear
9:53 AM -11.0 °F -26.2 °F -16.1 °F 78% 30.55 in 10.0 mi NNW 6.9 mph - N/A   Partly Cloudy
10:53 AM -9.9 °F -23.4 °F -16.1 °F 74% 30.54 in 10.0 mi NNW 5.8 mph - N/A   Partly Cloudy
11:53 AM -8.0 °F -16.9 °F -13.0 °F 79% 30.55 in 10.0 mi North 3.5 mph - N/A   Scattered Clouds
12:53 PM -6.0 °F - -11.9 °F 75% 30.53 in 10.0 mi Calm Calm - N/A   Scattered Clouds
1:53 PM -4.0 °F -14.6 °F -9.9 °F 76% 30.50 in 10.0 mi North 4.6 mph - N/A   Scattered Clouds
2:53 PM -2.9 °F -16.5 °F -8.0 °F 79% 30.48 in 10.0 mi NNW 6.9 mph - N/A   Scattered Clouds
3:53 PM -4.0 °F - -9.9 °F 76% 30.45 in 10.0 mi Calm Calm - N/A   Scattered Clouds
4:53 PM -7.1 °F - -11.9 °F 79% 30.44 in 10.0 mi Calm Calm - N/A   Scattered Clouds
5:53 PM -9.0 °F - -14.1 °F 79% 30.43 in 10.0 mi Calm Calm - N/A   Scattered Clouds
6:53 PM -9.9 °F - -14.1 °F 82% 30.42 in 10.0 mi Calm Calm - N/A   Scattered Clouds
7:53 PM -9.9 °F - -15.0 °F 78% 30.39 in 10.0 mi Calm Calm - N/A   Scattered Clouds
8:53 PM -9.0 °F -18.2 °F -13.0 °F 83% 30.37 in 10.0 mi NNE 3.5 mph - N/A   Scattered Clouds
9:53 PM -9.0 °F - -13.0 °F 83% 30.35 in 10.0 mi Calm Calm - N/A   Scattered Clouds
10:53 PM -8.0 °F - -11.9 °F 83% 30.33 in 10.0 mi Calm Calm - N/A   Scattered Clouds
11:53 PM -6.0 °F -14.7 °F -11.0 °F 79% 30.31 in 10.0 mi NNE 3.5 mph - N/A   Scattered Clouds